"Pseudo-MPEC" for P12oEEZ

Created 2026 Jul 28 21:35:07 UT using Find_Orb

Click here for an explanation of pseudo-MPECs

 
 Astrometry: 
     P12oEEZ*0C2026 07 25.57381623 24 07.494-07 37 02.32   ~7PJZ 21.93wXNEOCPF51
     P12oEEZ 0C2026 07 25.58445323 24 09.195-07 37 21.89   ~7PJZ 21.71wXNEOCPF51
     P12oEEZ 0C2026 07 25.59507223 24 10.902-07 37 41.58   ~7PJZ 21.62wXNEOCPF51
     P12oEEZ 0C2026 07 25.60587423 24 12.632-07 38 01.14   ~7PJZ 21.68wXNEOCPF51

Station data:
(F51) Pan-STARRS 1, Haleakala  (N20.707234 W156.255910)  US/Hawaii.
   Observers J. Herman, T. Lowe, P. Minguez, A. Schultz, I. Smith. Measurers
   K. Chambers, T. de Boer, J. Fairlamb, H. Gao, M. Huber, C.-C. Lin, E.
   Magnier, Y. Ramanjooloo, R. Wainscoat, R. Weryk. 1.8-m Ritchey-Chrétien +
   CCD.

Orbital elements:  P12oEEZ
   Perihelion 2026 Sep 2.743934 +/- 36.7 TT = 17:51:15.9 (JD 2461286.243934)
Epoch 2026 Jul 26.0 TT = JDT 2461247.5   Earth MOID: 0.0402   Ju: 0.5834
M 359.927346500 +/- 39              Ve: 0.0263   Me: 0.0273   Ma: 0.0419
n   0.001875222 +/-                 Peri.  345.104870 +/- 90     AutoNEOCP
a  65.12796399 +/-                  Node   131.874384 +/- 40
e   0.99963184 +/- 0.259            Incl.   56.876737 +/- 19
P 525.59503                H 22.25  G  0.15   U 11.0  SR
q 0.023977218 +/- 0.47    Q 130.2319507 +/- 29.8          (J2000 ecliptic)
From 4 observations 2026 July 25 (46.2 min); mean residual 0".08
Residuals in arcseconds: 
260725 F51  .01-  .06+    260725 F51  .06+  .18-    
260725 F51  .01-  .00     260725 F51  .03-  .12+    

Ephemerides (geocentric):
Date (UTC) HH   RA             Dec           delta  r     elong  mag " sig PA
---- --------  ------------   ------------  ------ ------ -----  --- --------
2026 07 28 22  23 37 35.198   -10 06 57.77  .20809 1.1700 134.2 20.7  31d  94
2026 07 28 23  23 37 49.639   -10 09 42.23  .20692 1.1690 134.2 20.7  31d  94
2026 07 29 00  23 38 04.240   -10 12 28.54  .20576 1.1681 134.2 20.7  31d  94
2026 07 29 01  23 38 19.002   -10 15 16.74  .20460 1.1672 134.2 20.7  31d  94
2026 07 29 02  23 38 33.929   -10 18 06.84  .20344 1.1663 134.2 20.7  31d  93
2026 07 29 03  23 38 49.024   -10 20 58.88  .20229 1.1653 134.2 20.7  32d  93
2026 07 29 04  23 39 04.289   -10 23 52.90  .20113 1.1644 134.2 20.6  32d  93
2026 07 29 05  23 39 19.729   -10 26 48.92  .19997 1.1635 134.2 20.6  32d  93
2026 07 29 06  23 39 35.345   -10 29 46.97  .19881 1.1626 134.2 20.6  33d  93
2026 07 29 07  23 39 51.141   -10 32 47.10  .19765 1.1616 134.1 20.6  33d  93
2026 07 29 08  23 40 07.120   -10 35 49.34  .19650 1.1607 134.1 20.6  34d  93
2026 07 29 09  23 40 23.287   -10 38 53.71  .19534 1.1598 134.1 20.6  34d  93
2026 07 29 10  23 40 39.643   -10 42 00.27  .19418 1.1589 134.1 20.6  34d  93
2026 07 29 11  23 40 56.193   -10 45 09.03  .19303 1.1579 134.1 20.6  35d  93
2026 07 29 12  23 41 12.939   -10 48 20.05  .19187 1.1570 134.1 20.5  35d  93
2026 07 29 13  23 41 29.887   -10 51 33.36  .19072 1.1561 134.1 20.5  35d  93
2026 07 29 14  23 41 47.039   -10 54 48.99  .18956 1.1551 134.1 20.5  36d  93
2026 07 29 15  23 42 04.400   -10 58 07.00  .18841 1.1542 134.1 20.5  36d  93
2026 07 29 16  23 42 21.973   -11 01 27.41  .18726 1.1533 134.0 20.5  37d  93
2026 07 29 17  23 42 39.762   -11 04 50.28  .18610 1.1524 134.0 20.5  37d  93
2026 07 29 18  23 42 57.772   -11 08 15.64  .18495 1.1514 134.0 20.5  37d  93
2026 07 29 19  23 43 16.007   -11 11 43.54  .18380 1.1505 134.0 20.4  38d  93
2026 07 29 20  23 43 34.470   -11 15 14.02  .18265 1.1496 134.0 20.4  38d  93
2026 07 29 21  23 43 53.168   -11 18 47.13  .18150 1.1486 133.9 20.4  38d  93
2026 07 29 22  23 44 12.103   -11 22 22.92  .18035 1.1477 133.9 20.4  39d  93
2026 07 29 23  23 44 31.282   -11 26 01.43  .17920 1.1468 133.9 20.4  39d  93
2026 07 30 00  23 44 50.708   -11 29 42.71  .17805 1.1458 133.9 20.4  39d  93
2026 07 30 01  23 45 10.386   -11 33 26.82  .17690 1.1449 133.9 20.4  40d  93
2026 07 30 02  23 45 30.323   -11 37 13.80  .17575 1.1440 133.8 20.3  40d  93
2026 07 30 03  23 45 50.522   -11 41 03.71  .17461 1.1430 133.8 20.3  40d  93
2026 07 30 04  23 46 10.990   -11 44 56.60  .17346 1.1421 133.8 20.3  40d  93
2026 07 30 05  23 46 31.731   -11 48 52.53  .17232 1.1412 133.8 20.3  40d  93
2026 07 30 06  23 46 52.751   -11 52 51.55  .17117 1.1402 133.7 20.3  41d  93
2026 07 30 07  23 47 14.057   -11 56 53.73  .17003 1.1393 133.7 20.3  41d  93
2026 07 30 08  23 47 35.654   -12 00 59.11  .16888 1.1384 133.7 20.3  41d  93
2026 07 30 09  23 47 57.548   -12 05 07.76  .16774 1.1374 133.6 20.2  41d  93
2026 07 30 10  23 48 19.746   -12 09 19.75  .16660 1.1365 133.6 20.2  42d  93
2026 07 30 11  23 48 42.253   -12 13 35.13  .16546 1.1355 133.6 20.2  42d  93
2026 07 30 12  23 49 05.077   -12 17 53.97  .16431 1.1346 133.5 20.2  42d  93
2026 07 30 13  23 49 28.224   -12 22 16.35  .16317 1.1337 133.5 20.2  42d  93
2026 07 30 14  23 49 51.702   -12 26 42.32  .16203 1.1327 133.5 20.2  42d  93
2026 07 30 15  23 50 15.517   -12 31 11.95  .16090 1.1318 133.4 20.2  43d  93
2026 07 30 16  23 50 39.678   -12 35 45.33  .15976 1.1309 133.4 20.1  43d  94
2026 07 30 17  23 51 04.190   -12 40 22.51  .15862 1.1299 133.4 20.1  43d  94
2026 07 30 18  23 51 29.064   -12 45 03.59  .15749 1.1290 133.3 20.1  43d  94
2026 07 30 19  23 51 54.305   -12 49 48.63  .15635 1.1280 133.3 20.1  43d  94
2026 07 30 20  23 52 19.924   -12 54 37.72  .15522 1.1271 133.2 20.1  43d  94
2026 07 30 21  23 52 45.928   -12 59 30.93  .15408 1.1262 133.2 20.1  44d  94